Location: Moscow
(55.7500°N, 37.5830°E)
Time: 21:45:43
(UTC+03:00)

A-11 Canister half - Pass Details

Date: 03 December 2021
Orbit: 1516 x 1684 km, 47.2° (Epoch: 16 January)

Event Time Altitude Azimuth Distance (km) Brightness Sun altitude
Rises 14:51:59 0° 284° (WNW) 4,912 12.0 5.6°
Reaches altitude 10° 14:56:23 10° 267° (W) 3,938 11.8 5.3°
Maximum altitude 15:02:35 19° 229° (SW) 3,307 12.6 4.8°
Drops below altitude 10° 15:08:49 10° 190° (S) 3,939 12.4 4.2°
Sets 15:13:16 0° 174° (S) 4,913 12.4 3.8°
